Time,TemperatureF,DewpointF,PressureIn,WindDirection,WindDirectionDegrees,WindSpeedMPH,WindSpeedGustMPH,Humidity,HourlyPrecipIn,Conditions,Clouds,dailyrainin,SoftwareType,DateUTC
2013-09-09 00:09:00,71.1,64.6,30.12,South,170,0.2,0.9,80,-99.99,,,-99.99,PyWeather,2013-09-08 22:09:00,
2013-09-09 00:18:00,71.2,64.8,30.12,SSE,154,0.9,2.0,80,-99.99,,,-99.99,PyWeather,2013-09-08 22:18:00,
2013-09-09 00:28:00,71.2,64.8,30.11,West,270,0.9,4.0,80,-99.99,,,-99.99,PyWeather,2013-09-08 22:28:00,
2013-09-09 00:38:00,71.2,64.8,30.12,SW,234,-999.0,0.9,80,-99.99,,,-99.99,PyWeather,2013-09-08 22:38:00,
2013-09-09 00:48:00,70.9,64.4,30.13,West,280,0.7,2.0,80,-99.99,,,-99.99,PyWeather,2013-09-08 22:48:00,
2013-09-09 00:58:00,70.5,64.8,30.13,West,264,0.7,2.0,82,-99.99,,,-99.99,PyWeather,2013-09-08 22:58:00,
2013-09-09 01:07:00,70.0,64.2,30.13,WNW,299,-999.0,0.9,82,-99.99,,,-99.99,PyWeather,2013-09-08 23:07:00,
2013-09-09 01:17:00,69.8,64.4,30.13,West,263,-999.0,0.9,83,-99.99,,,-99.99,PyWeather,2013-09-08 23:17:00,
2013-09-09 01:27:00,69.8,64.4,30.13,East,90,-999.0,-999.0,83,-99.99,,,-99.99,PyWeather,2013-09-08 23:27:00,
2013-09-09 01:37:00,69.8,64.4,30.14,West,270,0.4,2.0,83,-99.99,,,-99.99,PyWeather,2013-09-08 23:37:00,
2013-09-09 01:47:00,69.1,63.7,30.14,WSW,255,-999.0,0.9,83,-99.99,,,-99.99,PyWeather,2013-09-08 23:47:00,
2013-09-09 01:56:00,68.7,63.7,30.14,SW,234,-999.0,0.9,84,-99.99,,,-99.99,PyWeather,2013-09-08 23:56:00,
2013-09-09 02:06:00,68.7,64.0,30.14,West,273,0.2,0.9,85,-99.99,,,-99.99,PyWeather,2013-09-09 00:06:00,
2013-09-09 02:16:00,68.7,64.0,30.14,East,90,-999.0,-999.0,85,-99.99,,,-99.99,PyWeather,2013-09-09 00:16:00,
2013-09-09 02:26:00,68.7,64.0,30.14,East,90,-999.0,-999.0,85,-99.99,,,-99.99,PyWeather,2013-09-09 00:26:00,
2013-09-09 02:35:00,68.9,64.2,30.14,North,359,-999.0,0.9,85,-99.99,,,-99.99,PyWeather,2013-09-09 00:35:00,
2013-09-09 02:45:00,68.7,64.0,30.14,East,90,-999.0,-999.0,85,-99.99,,,-99.99,PyWeather,2013-09-09 00:45:00,
2013-09-09 02:55:00,68.5,63.9,30.14,East,90,-999.0,-999.0,85,-99.99,,,-99.99,PyWeather,2013-09-09 00:55:00,
2013-09-09 03:05:00,68.4,64.0,30.14,East,90,-999.0,-999.0,86,-99.99,,,-99.99,PyWeather,2013-09-09 01:05:00,
2013-09-09 03:15:00,68.4,64.0,30.13,East,90,-999.0,-999.0,86,-99.99,,,-99.99,PyWeather,2013-09-09 01:15:00,
2013-09-09 03:24:00,68.5,64.6,30.13,WSW,254,-999.0,0.9,87,-99.99,,,-99.99,PyWeather,2013-09-09 01:24:00,
2013-09-09 03:34:00,68.7,64.4,30.13,West,274,0.2,2.0,86,-99.99,,,-99.99,PyWeather,2013-09-09 01:34:00,
2013-09-09 03:44:00,68.4,64.0,30.13,East,90,-999.0,-999.0,86,-99.99,,,-99.99,PyWeather,2013-09-09 01:44:00,
2013-09-09 03:54:00,68.0,63.7,30.13,West,271,1.1,2.9,86,-99.99,,,-99.99,PyWeather,2013-09-09 01:54:00,
2013-09-09 04:04:00,67.5,63.5,30.12,NW,318,-999.0,0.9,87,-99.99,,,-99.99,PyWeather,2013-09-09 02:04:00,
2013-09-09 04:13:00,67.3,63.7,30.12,East,90,-999.0,-999.0,88,-99.99,,,-99.99,PyWeather,2013-09-09 02:13:00,
2013-09-09 04:23:00,67.3,63.7,30.13,WNW,288,-999.0,0.9,88,-99.99,,,-99.99,PyWeather,2013-09-09 02:23:00,
2013-09-09 04:33:00,67.3,63.7,30.12,East,90,-999.0,-999.0,88,-99.99,,,-99.99,PyWeather,2013-09-09 02:33:00,
2013-09-09 04:43:00,67.5,64.0,30.12,East,90,-999.0,-999.0,89,-99.99,,,-99.99,PyWeather,2013-09-09 02:43:00,
2013-09-09 04:53:00,67.5,64.0,30.12,WSW,239,-999.0,0.9,89,-99.99,,,-99.99,PyWeather,2013-09-09 02:53:00,
2013-09-09 05:02:00,67.5,64.0,30.12,East,90,-999.0,-999.0,89,-99.99,,,-99.99,PyWeather,2013-09-09 03:02:00,
2013-09-09 05:12:00,67.1,63.7,30.12,WSW,253,0.2,2.0,89,-99.99,,,-99.99,PyWeather,2013-09-09 03:12:00,
2013-09-09 05:22:00,66.9,63.5,30.11,WNW,297,-999.0,0.9,89,-99.99,,,-99.99,PyWeather,2013-09-09 03:22:00,
2013-09-09 05:32:00,66.9,63.9,30.11,West,268,0.9,2.0,90,-99.99,,,-99.99,PyWeather,2013-09-09 03:32:00,
2013-09-09 05:42:00,66.9,63.9,30.11,East,90,-999.0,-999.0,90,-99.99,,,-99.99,PyWeather,2013-09-09 03:42:00,
2013-09-09 05:51:00,66.9,63.9,30.10,East,90,-999.0,-999.0,90,-99.99,,,-99.99,PyWeather,2013-09-09 03:51:00,
2013-09-09 06:01:00,67.1,64.0,30.10,East,90,-999.0,-999.0,90,-99.99,,,-99.99,PyWeather,2013-09-09 04:01:00,
2013-09-09 06:06:00,67.3,64.2,30.10,West,264,0.2,0.9,90,-99.99,,,-99.99,PyWeather,2013-09-09 04:06:00,
2013-09-09 06:16:00,67.1,64.0,30.11,West,275,0.2,0.9,90,-99.99,,,-99.99,PyWeather,2013-09-09 04:16:00,
2013-09-09 06:26:00,67.1,64.0,30.11,NW,309,0.2,0.9,90,-99.99,,,-99.99,PyWeather,2013-09-09 04:26:00,
2013-09-09 06:30:00,67.3,64.2,30.11,West,267,1.3,2.9,90,-99.99,,,-99.99,PyWeather,2013-09-09 04:30:00,
2013-09-09 06:40:00,66.9,63.9,30.11,WSW,243,0.2,2.0,90,-99.99,,,-99.99,PyWeather,2013-09-09 04:40:00,
2013-09-09 06:50:00,67.1,64.4,30.11,NW,308,0.9,2.9,91,-99.99,,,-99.99,PyWeather,2013-09-09 04:50:00,
2013-09-09 07:00:00,68.0,65.3,30.11,North,351,3.4,6.1,91,-99.99,,,-99.99,PyWeather,2013-09-09 05:00:00,
2013-09-09 07:10:00,68.5,65.8,30.11,NNW,342,3.4,6.1,91,-99.99,,,-99.99,PyWeather,2013-09-09 05:10:00,
2013-09-09 07:19:00,68.4,65.7,30.11,North,354,3.4,6.1,91,-99.99,,,-99.99,PyWeather,2013-09-09 05:19:00,
2013-09-09 07:29:00,68.5,65.8,30.11,North,356,2.2,4.9,91,-99.99,,,-99.99,PyWeather,2013-09-09 05:29:00,
2013-09-09 07:39:00,68.7,66.0,30.11,NNE,21,1.3,2.9,91,-99.99,,,-99.99,PyWeather,2013-09-09 05:39:00,
2013-09-09 07:49:00,68.5,65.8,30.12,East,92,1.6,4.9,91,-99.99,,,-99.99,PyWeather,2013-09-09 05:49:00,
2013-09-09 07:59:00,68.0,65.3,30.12,SE,132,0.7,2.0,91,-99.99,,,-99.99,PyWeather,2013-09-09 05:59:00,
2013-09-09 08:08:00,68.0,65.3,30.13,SSE,156,-999.0,0.9,91,-99.99,,,-99.99,PyWeather,2013-09-09 06:08:00,
2013-09-09 08:18:00,68.0,65.7,30.12,East,90,-999.0,-999.0,92,-99.99,,,-99.99,PyWeather,2013-09-09 06:18:00,
2013-09-09 08:28:00,68.5,66.2,30.12,East,95,1.6,4.9,92,-99.99,,,-99.99,PyWeather,2013-09-09 06:28:00,
2013-09-09 08:38:00,69.1,66.4,30.12,NNE,30,2.9,4.9,91,-99.99,,,-99.99,PyWeather,2013-09-09 06:38:00,
2013-09-09 08:48:00,69.6,66.6,30.13,NNE,30,2.2,4.0,90,-99.99,,,-99.99,PyWeather,2013-09-09 06:48:00,
2013-09-09 08:52:00,69.8,66.7,30.13,NNE,30,2.7,4.9,90,-99.99,,,-99.99,PyWeather,2013-09-09 06:52:00,
2013-09-09 09:02:00,70.2,66.7,30.13,NNE,31,2.0,4.0,89,-99.99,,,-99.99,PyWeather,2013-09-09 07:02:00,
2013-09-09 09:12:00,70.5,66.7,30.13,NE,43,2.7,4.9,88,-99.99,,,-99.99,PyWeather,2013-09-09 07:12:00,
2013-09-09 09:22:00,70.9,66.7,30.14,NE,52,2.0,4.9,87,-99.99,,,-99.99,PyWeather,2013-09-09 07:22:00,
2013-09-09 09:32:00,71.4,66.7,30.14,NE,56,4.0,9.0,85,-99.99,,,-99.99,PyWeather,2013-09-09 07:32:00,
2013-09-09 09:41:00,71.8,66.7,30.14,NE,50,4.7,9.0,84,-99.99,,,-99.99,PyWeather,2013-09-09 07:41:00,
2013-09-09 09:51:00,72.1,66.4,30.15,NE,51,4.7,8.1,82,-99.99,,,-99.99,PyWeather,2013-09-09 07:51:00,
2013-09-09 10:01:00,72.7,66.6,30.15,NE,50,4.0,7.0,81,-99.99,,,-99.99,PyWeather,2013-09-09 08:01:00,
2013-09-09 10:11:00,72.9,66.7,30.15,NE,40,4.7,8.1,81,-99.99,,,-99.99,PyWeather,2013-09-09 08:11:00,
2013-09-09 10:21:00,73.4,66.9,30.15,NE,46,4.7,8.1,80,-99.99,,,-99.99,PyWeather,2013-09-09 08:21:00,
2013-09-09 10:30:00,73.4,66.6,30.15,NE,41,4.0,7.0,79,-99.99,,,-99.99,PyWeather,2013-09-09 08:30:00,
2013-09-09 10:40:00,73.0,66.6,30.15,NE,39,4.7,8.1,80,-99.99,,,-99.99,PyWeather,2013-09-09 08:40:00,
2013-09-09 10:50:00,73.0,66.2,30.15,NE,41,3.8,7.0,79,-99.99,,,-99.99,PyWeather,2013-09-09 08:50:00,
2013-09-09 11:00:00,73.4,66.2,30.15,ENE,57,3.4,8.1,78,-99.99,,,-99.99,PyWeather,2013-09-09 09:00:00,
2013-09-09 11:09:00,74.5,66.4,30.16,ESE,104,4.5,8.1,76,-99.99,,,-99.99,PyWeather,2013-09-09 09:09:00,
2013-09-09 11:19:00,75.2,66.4,30.16,NE,53,4.7,8.1,74,-99.99,,,-99.99,PyWeather,2013-09-09 09:19:00,
2013-09-09 11:29:00,75.4,66.6,30.16,ENE,61,5.2,9.0,74,-99.99,,,-99.99,PyWeather,2013-09-09 09:29:00,
2013-09-09 11:39:00,75.7,66.0,30.15,ENE,60,4.3,8.1,72,-99.99,,,-99.99,PyWeather,2013-09-09 09:39:00,
2013-09-09 11:49:00,75.9,65.8,30.15,ENE,57,6.3,10.1,71,-99.99,,,-99.99,PyWeather,2013-09-09 09:49:00,
2013-09-09 11:58:00,76.1,66.0,30.15,NE,53,4.9,11.0,71,-99.99,,,-99.99,PyWeather,2013-09-09 09:58:00,
2013-09-09 12:08:00,76.6,66.2,30.15,NNE,22,4.3,8.1,70,-99.99,,,-99.99,PyWeather,2013-09-09 10:08:00,
2013-09-09 12:18:00,76.6,65.7,30.15,ENE,75,3.4,9.0,69,-99.99,,,-99.99,PyWeather,2013-09-09 10:18:00,
2013-09-09 12:28:00,76.6,65.3,30.15,NNE,20,3.8,8.1,68,-99.99,,,-99.99,PyWeather,2013-09-09 10:28:00,
2013-09-09 12:38:00,76.8,64.9,30.15,NE,50,4.7,8.1,67,-99.99,,,-99.99,PyWeather,2013-09-09 10:38:00,
2013-09-09 12:47:00,77.5,65.7,30.15,ENE,72,1.3,4.9,67,-99.99,,,-99.99,PyWeather,2013-09-09 10:47:00,
2013-09-09 12:57:00,78.1,65.8,30.15,ENE,67,3.6,10.1,66,-99.99,,,-99.99,PyWeather,2013-09-09 10:57:00,
2013-09-09 13:07:00,77.2,65.8,30.15,NNE,15,4.9,9.0,68,-99.99,,,-99.99,PyWeather,2013-09-09 11:07:00,
2013-09-09 13:17:00,76.6,65.7,30.15,NNE,27,4.5,8.1,69,-99.99,,,-99.99,PyWeather,2013-09-09 11:17:00,
2013-09-09 13:27:00,76.5,65.5,30.15,NE,37,5.2,9.0,69,-99.99,,,-99.99,PyWeather,2013-09-09 11:27:00,
2013-09-09 13:36:00,76.8,65.8,30.15,NE,35,4.3,9.0,69,-99.99,,,-99.99,PyWeather,2013-09-09 11:36:00,
2013-09-09 13:46:00,76.5,65.5,30.15,NNE,16,7.0,11.9,69,-99.99,,,-99.99,PyWeather,2013-09-09 11:46:00,
2013-09-09 13:56:00,76.5,66.0,30.15,NE,35,6.5,11.0,70,-99.99,,,-99.99,PyWeather,2013-09-09 11:56:00,
2013-09-09 14:06:00,76.3,66.2,30.15,East,81,5.8,11.0,71,-99.99,,,-99.99,PyWeather,2013-09-09 12:06:00,
2013-09-09 14:16:00,76.3,66.2,30.15,ENE,77,6.1,11.0,71,-99.99,,,-99.99,PyWeather,2013-09-09 12:16:00,
2013-09-09 14:25:00,75.9,65.8,30.14,East,92,5.8,9.0,71,-99.99,,,-99.99,PyWeather,2013-09-09 12:25:00,
2013-09-09 14:35:00,76.3,66.6,30.14,ESE,104,5.4,10.1,72,-99.99,,,-99.99,PyWeather,2013-09-09 12:35:00,
2013-09-09 14:45:00,77.0,66.4,30.14,ENE,61,6.1,11.0,70,-99.99,,,-99.99,PyWeather,2013-09-09 12:45:00,
2013-09-09 14:55:00,76.6,65.7,30.14,ENE,75,5.4,11.0,69,-99.99,,,-99.99,PyWeather,2013-09-09 12:55:00,
2013-09-09 15:04:00,76.6,66.2,30.14,ENE,64,5.2,9.0,70,-99.99,,,-99.99,PyWeather,2013-09-09 13:04:00,
2013-09-09 15:14:00,76.6,66.2,30.12,ENE,73,7.0,13.0,70,-99.99,,,-99.99,PyWeather,2013-09-09 13:14:00,
2013-09-09 15:24:00,76.8,66.4,30.13,ENE,76,7.9,13.0,70,-99.99,,,-99.99,PyWeather,2013-09-09 13:24:00,
2013-09-09 15:34:00,77.5,66.6,30.12,East,93,6.5,13.0,69,-99.99,,,-99.99,PyWeather,2013-09-09 13:34:00,
2013-09-09 15:44:00,77.5,67.5,30.12,SSE,162,5.4,10.1,71,-99.99,,,-99.99,PyWeather,2013-09-09 13:44:00,
2013-09-09 15:53:00,77.7,67.1,30.12,SSE,157,5.6,10.1,70,-99.99,,,-99.99,PyWeather,2013-09-09 13:53:00,
2013-09-09 16:03:00,77.9,67.3,30.11,SSE,155,5.4,9.0,70,-99.99,,,-99.99,PyWeather,2013-09-09 14:03:00,
2013-09-09 16:13:00,77.9,67.3,30.11,SSE,150,4.9,9.0,70,-99.99,,,-99.99,PyWeather,2013-09-09 14:13:00,
2013-09-09 16:23:00,77.5,66.9,30.11,SE,129,5.6,10.1,70,-99.99,,,-99.99,PyWeather,2013-09-09 14:23:00,
2013-09-09 16:33:00,76.8,67.5,30.11,SE,126,7.0,11.9,73,-99.99,,,-99.99,PyWeather,2013-09-09 14:33:00,
2013-09-09 16:42:00,76.6,67.3,30.11,SE,128,7.0,13.0,73,-99.99,,,-99.99,PyWeather,2013-09-09 14:42:00,
2013-09-09 16:52:00,76.3,66.9,30.11,SSE,148,3.8,7.0,73,-99.99,,,-99.99,PyWeather,2013-09-09 14:52:00,
2013-09-09 17:02:00,76.1,66.7,30.12,South,175,2.0,4.9,73,-99.99,,,-99.99,PyWeather,2013-09-09 15:02:00,
2013-09-09 17:12:00,73.8,65.7,30.12,NW,326,5.6,9.0,76,-99.99,,,-99.99,PyWeather,2013-09-09 15:12:00,
2013-09-09 17:22:00,72.7,66.9,30.12,NW,316,0.9,2.9,82,0.10,,,0.02,PyWeather,2013-09-09 15:22:00,
2013-09-09 17:31:00,72.7,67.6,30.12,NW,318,0.7,2.0,84,-99.99,,,0.02,PyWeather,2013-09-09 15:31:00,
2013-09-09 17:41:00,72.7,67.8,30.12,NW,322,0.4,2.0,85,-99.99,,,0.02,PyWeather,2013-09-09 15:41:00,
2013-09-09 17:51:00,73.4,68.9,30.11,WNW,294,1.1,2.9,86,-99.99,,,0.02,PyWeather,2013-09-09 15:51:00,
2013-09-09 18:01:00,73.4,68.2,30.11,SSW,209,0.7,4.0,84,-99.99,,,0.02,PyWeather,2013-09-09 16:01:00,
2013-09-09 18:10:00,73.6,68.7,30.11,SSW,199,0.2,2.0,85,-99.99,,,0.02,PyWeather,2013-09-09 16:10:00,
2013-09-09 18:20:00,73.6,68.7,30.11,WNW,300,1.8,4.0,85,-99.99,,,0.02,PyWeather,2013-09-09 16:20:00,
2013-09-09 18:30:00,73.0,68.2,30.11,NW,309,0.4,2.9,85,-99.99,,,0.02,PyWeather,2013-09-09 16:30:00,
2013-09-09 18:40:00,72.9,68.4,30.11,NW,314,1.1,2.9,86,-99.99,,,0.02,PyWeather,2013-09-09 16:40:00,
2013-09-09 18:50:00,73.0,68.5,30.11,SW,224,1.3,4.0,86,-99.99,,,0.02,PyWeather,2013-09-09 16:50:00,
2013-09-09 18:59:00,72.9,68.7,30.11,NNW,333,1.3,4.0,87,-99.99,,,0.02,PyWeather,2013-09-09 16:59:00,
2013-09-09 19:09:00,72.7,68.9,30.11,NNW,337,1.1,2.9,88,-99.99,,,0.02,PyWeather,2013-09-09 17:09:00,
2013-09-09 19:19:00,72.5,68.7,30.11,NNW,336,1.6,2.9,88,-99.99,,,0.02,PyWeather,2013-09-09 17:19:00,
2013-09-09 19:29:00,72.5,68.7,30.11,NNW,336,0.9,2.9,88,-99.99,,,0.02,PyWeather,2013-09-09 17:29:00,
2013-09-09 19:39:00,72.3,68.5,30.11,NW,319,-999.0,0.9,88,-99.99,,,0.02,PyWeather,2013-09-09 17:39:00,
2013-09-09 19:48:00,72.3,68.9,30.10,NNW,336,0.2,0.9,89,-99.99,,,0.02,PyWeather,2013-09-09 17:48:00,
2013-09-09 19:58:00,72.3,68.9,30.10,East,90,-999.0,-999.0,89,-99.99,,,0.02,PyWeather,2013-09-09 17:58:00,
2013-09-09 20:08:00,72.1,68.4,30.11,NNW,344,0.2,0.9,88,-99.99,,,0.02,PyWeather,2013-09-09 18:08:00,
2013-09-09 20:18:00,72.1,68.7,30.11,NNW,342,0.2,0.9,89,-99.99,,,0.02,PyWeather,2013-09-09 18:18:00,
2013-09-09 20:28:00,72.1,68.7,30.11,NW,326,0.7,2.0,89,-99.99,,,0.02,PyWeather,2013-09-09 18:28:00,
2013-09-09 20:37:00,72.1,68.4,30.11,ENE,67,1.1,2.9,88,-99.99,,,0.02,PyWeather,2013-09-09 18:37:00,
2013-09-09 20:47:00,72.0,68.2,30.11,East,86,1.1,2.9,88,-99.99,,,0.02,PyWeather,2013-09-09 18:47:00,
2013-09-09 20:57:00,72.0,68.2,30.12,East,82,0.2,0.9,88,-99.99,,,0.02,PyWeather,2013-09-09 18:57:00,
2013-09-09 21:07:00,72.0,68.2,30.12,East,90,-999.0,-999.0,88,-99.99,,,0.02,PyWeather,2013-09-09 19:07:00,
2013-09-09 21:17:00,71.8,68.0,30.12,East,85,0.2,2.0,88,-99.99,,,0.02,PyWeather,2013-09-09 19:17:00,
2013-09-09 21:26:00,71.8,68.0,30.12,East,85,0.2,0.9,88,-99.99,,,0.02,PyWeather,2013-09-09 19:26:00,
2013-09-09 21:36:00,71.8,68.4,30.13,ENE,68,1.8,4.0,89,-99.99,,,0.02,PyWeather,2013-09-09 19:36:00,
2013-09-09 21:46:00,71.4,68.0,30.13,East,90,-999.0,-999.0,89,-99.99,,,0.02,PyWeather,2013-09-09 19:46:00,
2013-09-09 21:56:00,71.4,68.4,30.13,East,90,-999.0,-999.0,90,-99.99,,,0.02,PyWeather,2013-09-09 19:56:00,
2013-09-09 22:05:00,71.1,67.6,30.13,ENE,67,0.7,2.0,89,-99.99,,,0.02,PyWeather,2013-09-09 20:05:00,
2013-09-09 22:15:00,70.5,67.5,30.13,East,90,-999.0,-999.0,90,-99.99,,,0.02,PyWeather,2013-09-09 20:15:00,
2013-09-09 22:25:00,70.3,67.3,30.13,ENE,67,0.2,0.9,90,-99.99,,,0.02,PyWeather,2013-09-09 20:25:00,
2013-09-09 22:35:00,70.2,67.1,30.13,ENE,69,-999.0,0.9,90,-99.99,,,0.02,PyWeather,2013-09-09 20:35:00,
2013-09-09 22:45:00,70.2,67.5,30.12,East,90,-999.0,-999.0,91,-99.99,,,0.02,PyWeather,2013-09-09 20:45:00,
2013-09-09 22:54:00,70.0,67.3,30.12,East,90,-999.0,-999.0,91,-99.99,,,0.02,PyWeather,2013-09-09 20:54:00,
2013-09-09 23:04:00,69.8,67.1,30.12,ENE,70,-999.0,0.9,91,-99.99,,,0.02,PyWeather,2013-09-09 21:04:00,
2013-09-09 23:14:00,69.8,67.1,30.12,East,90,-999.0,-999.0,91,-99.99,,,0.02,PyWeather,2013-09-09 21:14:00,
2013-09-09 23:24:00,69.6,66.9,30.12,ENE,69,-999.0,0.9,91,-99.99,,,0.02,PyWeather,2013-09-09 21:24:00,
2013-09-09 23:34:00,69.4,66.7,30.11,ENE,68,-999.0,0.9,91,-99.99,,,0.02,PyWeather,2013-09-09 21:34:00,
2013-09-09 23:43:00,69.4,66.7,30.11,East,90,-999.0,-999.0,91,-99.99,,,0.02,PyWeather,2013-09-09 21:43:00,
2013-09-09 23:53:00,69.4,67.1,30.11,East,90,-999.0,-999.0,92,-99.99,,,0.02,PyWeather,2013-09-09 21:53:00,